[[{"header":{"parameterUnit":"m.s-1","parameterCategory":1,"la1":30.2991,"la2":30.254,"lo1":-89.0895,"lo2":-89.0444,"dy":0.0017,"dx":0.0017,"nx":28,"ny":28,"refTime":"2024-07-09T03:00:00:Z","depth":0,"parameterNumber":2,"parameterNumberName":"U-component_of_WINDS"},"data":[0,0,0,0,0,0,0,0,0,0,0,0,0,0,0,0,0,0,0,0,0,0,0,0,0,0,0,0,0,0,0,0,0,0,0,0,0,0,0,0,0,0,0,0,0,0,0,0,0,0,0,0,0,0,0,0,0,0,4.7135,4.7136,0,4.7254,4.7256,4.7257,4.7188,4.7184,4.7181,4.7178,4.73,4.7306,4.7312,0,0,0,0,0,0,0,0,0,0,0,0,0,4.6845,4.6851,4.7134,4.7136,4.7138,4.7254,4.7256,4.7257,4.7188,4.7184,4.718,4.7176,4.7298,4.7305,4.7313,0,0,0,0,0,0,0,0,0,0,0,0,0,4.6968,4.6852,4.7134,4.7117,4.7117,4.7254,4.7256,4.7258,4.7189,4.7184,4.7179,4.7174,4.7295,4.7305,4.7314,4.7474,0,0,4.7343,4.7348,0,0,0,0,0,0,0,0,4.6961,4.6979,4.7118,4.7119,4.7118,4.7201,4.7198,4.733,4.719,4.7162,4.7178,4.7172,4.7271,4.7282,4.7316,4.748,4.7485,4.7344,4.735,4.7354,4.7357,0,0,0,0,0,0,0,4.6953,4.6973,4.7182,4.712,4.712,4.7103,4.7115,4.7223,4.7243,4.7164,4.7159,4.7174,4.727,4.7307,4.7318,4.7487,4.7344,4.7352,4.7358,4.7362,4.7787,4.7793,0,0,0,0,0,0,4.6946,4.6967,4.7178,4.7185,4.7026,4.7112,4.7126,4.7179,4.7242,4.7246,4.7178,4.717,4.7293,4.7307,4.7322,4.7513,4.7354,4.7363,4.7369,4.7782,4.7789,4.7795,0,0,0,0,0,0,4.694,4.6965,4.7173,4.7075,4.71,4.7123,4.7184,4.7185,4.7221,4.7253,4.7256,4.7212,4.7289,4.7309,4.7437,4.7516,4.7367,4.7376,4.7775,4.7784,4.7792,4.7897,0,0,0,0,0,0,4.6932,4.6963,4.7025,4.7077,4.7106,4.7287,4.7189,4.719,4.7238,4.7229,4.7285,4.729,4.7287,4.7423,4.7446,4.7527,4.7384,4.7768,4.7779,4.7789,4.7886,4.7908,4.7926,0,0,0,0,0,4.6922,4.705,4.7029,4.7054,4.7183,4.7291,4.7308,4.7302,4.7245,4.7306,4.7326,4.7288,4.7504,4.7437,4.7462,4.7547,4.7763,4.7776,4.7788,4.7877,4.7903,4.7925,0,0,0,0,0,0,4.7007,4.7057,4.7033,4.7182,4.7233,4.7279,4.7357,4.733,4.7398,4.7386,4.7376,4.7389,4.7522,4.7547,4.7472,4.7705,4.7625,4.7643,4.7683,4.7708,4.7728,4.7719,4.7392,0,0,0,0,0,4.7044,4.7128,4.7166,4.7294,4.7321,4.7335,4.7382,4.7373,4.7425,4.7446,4.7475,4.7527,4.7606,4.7659,4.7734,4.7889,4.79,4.796,4.798,4.7996,4.8012,4.8095,4.8122,4.7836,4.7836,4.7835,0,0,4.7119,4.7157,4.7211,4.7312,4.735,4.7437,4.7353,4.7449,4.7513,4.746,4.7583,4.7606,4.7663,4.7806,4.787,4.7831,4.8093,4.8012,4.8025,4.8032,4.811,4.8138,4.8162,4.7844,4.7843,4.7841,0,0,4.7302,4.7339,4.7449,4.7489,4.7548,4.7556,4.7582,4.7633,4.7646,4.7769,4.7731,4.7807,4.7944,4.7986,4.8025,4.8222,4.8189,4.8246,4.835,4.8431,4.8453,4.8473,4.8543,4.8568,4.8262,4.8262,4.8263,0,4.7389,4.7518,4.7509,4.7608,4.7653,4.7609,4.772,4.7759,4.7839,4.7871,4.7826,4.7996,4.8031,4.8182,4.823,4.8264,4.8293,4.824,4.8451,4.8471,4.8489,4.8555,4.8581,4.8269,4.8268,4.8268,4.8267,0,4.7621,4.7712,4.7794,4.7872,4.7926,4.8031,4.8037,4.8093,4.8079,4.8092,4.8216,4.8257,4.8339,4.8374,4.8361,4.8523,4.8497,4.8452,4.8371,4.8523,4.8585,4.861,4.8278,4.8276,4.8274,4.8272,0,0,4.7862,4.7933,4.7963,4.7998,4.8059,4.8128,4.823,4.831,4.8358,4.8414,4.8498,4.8615,4.8573,4.8618,4.8609,4.8681,4.8832,4.8626,4.8627,4.8662,4.9012,4.9045,4.9074,4.8811,4.8816,4.8819,4.9006,0,4.8048,4.8226,4.822,4.8385,4.8468,4.8427,4.8515,4.8562,4.8576,4.8648,4.8663,4.8746,4.8685,4.8711,4.878,4.8799,4.8902,4.8786,4.8888,4.8892,4.8875,4.9106,4.9142,4.9317,4.9031,4.9035,4.9038,0,4.8288,4.8353,4.8527,4.8574,4.8608,4.8688,4.876,4.8829,4.8881,4.8886,4.8936,4.8915,4.9017,4.8934,4.9074,4.8995,4.9036,4.9052,4.9058,4.9067,4.8974,4.9121,4.9372,4.9398,4.9076,4.9073,4.907,0,4.8445,4.8575,4.8696,4.8727,4.8786,4.8842,4.8869,4.8916,4.8964,4.9026,4.9057,4.9131,4.9171,4.9228,4.9228,4.9168,4.9369,4.9286,4.9376,4.9376,4.942,4.9417,4.9681,4.9448,4.9448,4.9447,4.9447,0,4.8653,4.8761,4.8767,4.8841,4.896,4.8952,4.907,4.9091,4.9132,4.9209,4.9178,4.9251,4.9246,4.932,4.932,4.9435,4.9454,4.946,4.9459,4.9463,4.9462,4.949,4.9477,4.9454,4.9453,4.9451,4.945,0,4.8849,4.8858,4.8986,4.9031,4.9044,4.913,4.9168,4.9238,4.9249,4.9346,4.9369,4.9386,4.9471,4.9476,4.9574,4.9574,4.9713,4.9699,4.9696,4.9693,4.9782,4.9774,5.0073,5.0111,4.9854,4.9856,4.9858,0,4.8981,4.9063,4.9116,4.9165,4.9196,4.9275,4.9324,4.9318,4.937,4.9434,4.9496,4.9577,4.9642,4.9779,4.98,4.9874,4.9861,4.996,4.9872,4.9873,4.9861,4.9856,4.9864,4.9978,4.9981,4.9983,4.9985,0,4.9214,4.9214,4.9285,4.9358,4.9416,4.9473,4.9526,4.9568,4.9568,4.9628,4.9713,4.9764,4.9863,4.9944,5.0016,5.0043,5.0014,5.0012,5.0037,5.0041,5.0036,5.0039,4.9742,5.0006,5.0003,5.0002,5.0001,5.0,4.9382,4.9452,4.95,4.958,4.9619,4.9669,4.9736,4.9755,4.9827,4.9907,4.9899,4.9994,5.0042,5.0136,5.0168,5.0242,5.0208,5.0244,5.0253,5.0261,5.027,5.0025,5.0255,5.0254,5.0254,5.0253,5.0253,0,4.9612,4.9641,4.9714,4.9789,4.9851,4.9819,4.9875,4.9929,5.0013,5.006,5.0124,5.0222,5.03,5.0327,5.0402,5.0456,5.0444,5.0476,5.0472,5.0478,5.0297,5.0268,5.0484,5.0484,5.0484,5.0484,5.0484,5.0483,4.974,4.9856,4.9862,4.9997,5.0024,5.0117,5.0152,5.0197,5.0234,5.0345,5.041,5.0426,5.0465,5.0543,5.0612,5.0618,5.0647,5.0684,5.0684,5.0514,5.0491,5.0469,5.0441,5.069,5.069,5.0858,5.086,5.0861]},{"header":{"parameterUnit":"m.s-1","parameterCategory":1,"la1":30.2991,"la2":30.254,"lo1":-89.0895,"lo2":-89.0444,"dy":0.0017,"dx":0.0017,"nx":28,"ny":28,"refTime":"2024-07-09T03:00:00:Z","depth":0,"parameterNumber":3,"parameterNumberName":"V-component_of_WINDS"},"data":[0,0,0,0,0,0,0,0,0,0,0,0,0,0,0,0,0,0,0,0,0,0,0,0,0,0,0,0,0,0,0,0,0,0,0,0,0,0,0,0,0,0,0,0,0,0,0,0,0,0,0,0,0,0,0,0,0,0,0.178,0.178,0,0.1785,0.1785,0.1785,0.1781,0.178,0.178,0.178,0.1784,0.1784,0.1785,0,0,0,0,0,0,0,0,0,0,0,0,0,0.1765,0.1765,0.178,0.178,0.178,0.1785,0.1785,0.1785,0.1781,0.178,0.178,0.178,0.1784,0.1784,0.1785,0,0,0,0,0,0,0,0,0,0,0,0,0,0.1771,0.1765,0.178,0.1778,0.1778,0.1785,0.1785,0.1785,0.1781,0.178,0.178,0.178,0.1784,0.1784,0.1785,0.1792,0,0,0.1786,0.1786,0,0,0,0,0,0,0,0,0.177,0.1771,0.1779,0.1779,0.1778,0.1782,0.1781,0.1787,0.1781,0.178,0.178,0.178,0.1783,0.1784,0.1785,0.1792,0.1793,0.1786,0.1786,0.1786,0.1787,0,0,0,0,0,0,0,0.177,0.1771,0.1782,0.1779,0.1779,0.1777,0.1777,0.1782,0.1783,0.178,0.178,0.178,0.1783,0.1785,0.1785,0.1793,0.1786,0.1786,0.1787,0.1787,0.1804,0.1804,0,0,0,0,0,0,0.177,0.1771,0.1782,0.1782,0.1774,0.1777,0.1778,0.1781,0.1783,0.1783,0.178,0.178,0.1784,0.1785,0.1786,0.1793,0.1786,0.1787,0.1787,0.1804,0.1804,0.1804,0,0,0,0,0,0,0.177,0.1771,0.1781,0.1776,0.1777,0.1778,0.1781,0.1781,0.1783,0.1783,0.1783,0.1782,0.1784,0.1785,0.179,0.1794,0.1787,0.1787,0.1803,0.1804,0.1804,0.181,0,0,0,0,0,0,0.1769,0.1771,0.1774,0.1776,0.1778,0.1787,0.1781,0.1781,0.1784,0.1783,0.1785,0.1785,0.1784,0.179,0.1791,0.1794,0.1788,0.1803,0.1804,0.1804,0.181,0.181,0.1811,0,0,0,0,0,0.1769,0.1776,0.1775,0.1776,0.1782,0.1787,0.1788,0.1787,0.1784,0.1787,0.1787,0.1785,0.1793,0.179,0.1791,0.1795,0.1803,0.1803,0.1804,0.1809,0.181,0.1811,0,0,0,0,0,0,0.1775,0.1777,0.1775,0.1783,0.1785,0.1786,0.1791,0.1788,0.1791,0.179,0.1789,0.1789,0.1794,0.1795,0.1792,0.1801,0.1797,0.1798,0.1801,0.1802,0.1803,0.1803,0.1788,0,0,0,0,0,0.1778,0.1782,0.1782,0.179,0.1791,0.179,0.1792,0.1791,0.1793,0.1794,0.1794,0.1795,0.1798,0.18,0.1802,0.1809,0.1809,0.1812,0.1813,0.1813,0.1814,0.1816,0.1817,0.1806,0.1806,0.1806,0,0,0.1783,0.1784,0.1787,0.1791,0.1792,0.1796,0.1791,0.1796,0.1798,0.1794,0.1799,0.1799,0.18,0.1806,0.1808,0.1807,0.1817,0.1814,0.1815,0.1815,0.1817,0.1818,0.1819,0.1806,0.1806,0.1806,0,0,0.1794,0.1796,0.1801,0.1802,0.1804,0.1803,0.1804,0.1805,0.1805,0.181,0.1807,0.1809,0.1814,0.1814,0.1815,0.1824,0.1821,0.1824,0.1829,0.1831,0.1832,0.1833,0.1835,0.1836,0.1825,0.1825,0.1825,0,0.18,0.1806,0.1804,0.1809,0.181,0.1806,0.1811,0.1812,0.1814,0.1815,0.1812,0.1817,0.1818,0.1823,0.1824,0.1826,0.1826,0.1825,0.1832,0.1833,0.1834,0.1836,0.1837,0.1825,0.1825,0.1825,0.1825,0,0.1813,0.1817,0.1821,0.1823,0.1825,0.1829,0.1827,0.1829,0.1827,0.1826,0.183,0.183,0.1832,0.1833,0.1831,0.1837,0.1835,0.1832,0.1829,0.1835,0.1837,0.1838,0.1826,0.1826,0.1826,0.1825,0,0,0.1831,0.183,0.1831,0.1831,0.1832,0.1834,0.1838,0.1839,0.184,0.1841,0.1843,0.1846,0.1843,0.1844,0.1842,0.1844,0.1849,0.1841,0.184,0.1842,0.1854,0.1856,0.1857,0.1847,0.1847,0.1847,0.1853,0,0.1841,0.1848,0.1845,0.1852,0.1855,0.185,0.1852,0.1852,0.1851,0.1852,0.185,0.1852,0.1848,0.1849,0.185,0.1848,0.1851,0.1848,0.1848,0.1848,0.1849,0.1858,0.1861,0.1867,0.1854,0.1854,0.1854,0,0.1856,0.1856,0.1863,0.1861,0.1862,0.1865,0.1865,0.1867,0.1866,0.1864,0.1864,0.1861,0.1863,0.1858,0.186,0.1858,0.1857,0.1856,0.1856,0.1857,0.1852,0.1858,0.1869,0.1869,0.1856,0.1855,0.1855,0,0.1867,0.187,0.1874,0.1874,0.1872,0.1874,0.1873,0.1871,0.1872,0.1871,0.1871,0.1871,0.1871,0.187,0.1867,0.1864,0.1868,0.1864,0.1867,0.1867,0.1869,0.1869,0.1879,0.1868,0.1868,0.1868,0.1868,0,0.188,0.1884,0.1879,0.1881,0.1885,0.1881,0.1885,0.1883,0.1881,0.1882,0.1878,0.1879,0.1874,0.1874,0.1871,0.1872,0.1872,0.187,0.187,0.1871,0.1871,0.1871,0.1871,0.1868,0.1868,0.1868,0.1868,0,0.1893,0.189,0.1894,0.1891,0.189,0.1893,0.189,0.1892,0.1889,0.1891,0.1891,0.1886,0.1886,0.1882,0.1881,0.1879,0.1881,0.1879,0.1881,0.1881,0.1884,0.1883,0.1894,0.1895,0.1884,0.1884,0.1884,0,0.1902,0.1905,0.1902,0.1902,0.1902,0.1902,0.1902,0.1898,0.1898,0.1895,0.1897,0.1896,0.1895,0.1894,0.1891,0.1889,0.1887,0.1891,0.1887,0.1888,0.1887,0.1887,0.1886,0.1892,0.1892,0.1893,0.1893,0,0.1917,0.1915,0.1915,0.1915,0.1915,0.1914,0.1913,0.1913,0.1908,0.1907,0.1907,0.1906,0.1904,0.1903,0.19,0.1898,0.1894,0.1894,0.1894,0.1896,0.1897,0.1896,0.1884,0.1894,0.1894,0.1894,0.1893,0.1893,0.1928,0.193,0.1928,0.1928,0.1926,0.1925,0.1925,0.1922,0.1922,0.192,0.1917,0.1916,0.1913,0.1909,0.1907,0.1905,0.1903,0.1904,0.1904,0.1905,0.1905,0.1896,0.1905,0.1905,0.1905,0.1905,0.1905,0,0.1943,0.1941,0.1941,0.1939,0.1938,0.1934,0.1932,0.1931,0.1931,0.1928,0.1927,0.1925,0.1923,0.1919,0.1916,0.1916,0.1914,0.1915,0.1915,0.1914,0.1907,0.1907,0.1917,0.1917,0.1917,0.1917,0.1917,0.1917,0.195,0.1953,0.195,0.195,0.1948,0.1947,0.1946,0.1944,0.1942,0.194,0.1939,0.1935,0.1931,0.1928,0.1925,0.1924,0.1923,0.1925,0.1923,0.1916,0.1915,0.1914,0.1914,0.1925,0.1925,0.193,0.193,0.193]}]]